Location: *
(2.5500°S, 65.9667°W)
Time: 05:37:30
(UTC+00:00)

Explorer 7 - Pass Details

Date: 19 April 2024
Orbit: 467 x 625 km, 50.3° (Epoch: 26 May)

Event Time Altitude Azimuth Distance (km) Brightness Sun altitude
Rises 23:27:48 0° 357° (N) 2,688 10.5 -16.4°
Enters shadow 23:31:48 11° 35° (NE) 1,701 9.1 -17.4°
Maximum altitude 23:32:53 12° 52° (NE) 1,628 - -17.7°
Drops below altitude 10° 23:34:21 10° 74° (ENE) 1,723 - -18.0°
Sets 23:37:47 0° 107° (ESE) 2,571 - -18.9°
